| time (UTC) | temp C | wind direction | speed KPH | gust KPH | rain 1hr cm | rain 24hr cm | rain mn cm | humidity % | barometer mb |
| 20260906103111 | 21 | 0 | 0.0 | 0.0 | 0.00 | 0.08 | 0.00 | 99 | 1010.7 |
| 20260906101605 | 21 | 0 | 0.0 | 0.0 | 0.00 | 0.08 | 0.00 | 99 | 1010.5 |
| 20260906100108 | 21 | 0 | 0.0 | 0.0 | 0.00 | 0.08 | 0.00 | 99 | 1010.4 |
| 20260906094607 | 21 | 0 | 0.0 | 0.0 | 0.00 | 0.08 | 0.00 | 99 | 1010.4 |
| 20260906093109 | 21 | 0 | 0.0 | 0.0 | 0.00 | 0.08 | 0.00 | 99 | 1010.4 |
| 20260906091614 | 21 | 0 | 0.0 | 0.0 | 0.00 | 0.08 | 0.00 | 99 | 1010.1 |
| 20260906090116 | 21 | 0 | 0.0 | 0.0 | 0.00 | 0.08 | 0.00 | 99 | 1010.0 |
| 20260906084613 | 21 | 0 | 0.0 | 0.0 | 0.00 | 0.08 | 0.00 | 99 | 1010.0 |
| 20260906083104 | 21 | 0 | 0.0 | 0.0 | 0.00 | 0.08 | 0.00 | 99 | 1010.0 |
| 20260906081609 | 21 | 0 | 0.0 | 0.0 | 0.00 | 0.08 | 0.00 | 99 | 1010.0 |
| 20260906080106 | 21 | 0 | 0.0 | 0.0 | 0.00 | 0.08 | 0.00 | 99 | 1010.0 |
| 20260906074612 | 21 | 0 | 0.0 | 0.0 | 0.00 | 0.08 | 0.00 | 99 | 1010.0 |
| 20260906073110 | 21 | 0 | 0.0 | 0.0 | 0.00 | 0.08 | 0.00 | 99 | 1010.1 |
| 20260906071609 | 21 | 0 | 0.0 | 0.0 | 0.00 | 0.08 | 0.00 | 98 | 1010.0 |
| 20260906070138 | 21 | 0 | 0.0 | 0.0 | 0.00 | 0.08 | 0.00 | 98 | 1010.2 |
| 20260906064608 | 21 | 0 | 0.0 | 0.0 | 0.00 | 0.08 | 0.00 | 98 | 1010.2 |
| 20260906063108 | 22 | 0 | 0.0 | 0.0 | 0.00 | 0.08 | 0.00 | 98 | 1010.3 |
| 20260906061635 | 22 | 0 | 0.0 | 0.0 | 0.00 | 0.08 | 0.00 | 98 | 1010.7 |
| 20260906060109 | 22 | 0 | 0.0 | 0.0 | 0.00 | 0.08 | 0.00 | 98 | 1010.6 |
| 20260906054608 | 22 | 0 | 0.0 | 4.8 | 0.00 | 0.08 | 0.00 | 98 | 1010.4 |
| 20260906053105 | 22 | 0 | 0.0 | 0.0 | 0.00 | 0.08 | 0.00 | 98 | 1010.2 |
| 20260906051606 | 22 | 0 | 0.0 | 0.0 | 0.00 | 0.08 | 0.00 | 98 | 1010.3 |
| 20260906050116 | 22 | 0 | 0.0 | 0.0 | 0.00 | 0.08 | 0.00 | 98 | 1010.6 |
| 20260906044607 | 22 | 0 | 0.0 | 0.0 | 0.00 | 0.08 | 0.08 | 98 | 1010.6 |
| 20260906043112 | 22 | 0 | 0.0 | 0.0 | 0.00 | 0.08 | 0.08 | 98 | 1010.6 |
| 20260906041608 | 22 | 0 | 0.0 | 0.0 | 0.00 | 0.08 | 0.08 | 98 | 1010.4 |
| 20260906040120 | 22 | 0 | 0.0 | 0.0 | 0.00 | 0.08 | 0.08 | 98 | 1010.4 |
| 20260906034607 | 23 | 0 | 0.0 | 0.0 | 0.00 | 0.08 | 0.08 | 97 | 1010.3 |
| 20260906033105 | 23 | 0 | 0.0 | 0.0 | 0.00 | 0.08 | 0.08 | 97 | 1010.2 |
| 20260906031610 | 23 | 0 | 0.0 | 0.0 | 0.00 | 0.08 | 0.08 | 97 | 1010.3 |
| 20260906030110 | 23 | 0 | 0.0 | 0.0 | 0.00 | 0.08 | 0.08 | 97 | 1010.2 |
| 20260906024608 | 23 | 0 | 0.0 | 0.0 | 0.00 | 0.08 | 0.08 | 97 | 1010.1 |
| 20260906023131 | 23 | 0 | 0.0 | 0.0 | 0.00 | 0.08 | 0.08 | 96 | 1009.9 |
| 20260906021605 | 23 | 0 | 0.0 | 0.0 | 0.00 | 0.08 | 0.08 | 95 | 1009.8 |
| 20260906020113 | 24 | 0 | 0.0 | 0.0 | 0.00 | 0.08 | 0.08 | 93 | 1009.7 |
| 20260906014629 | 25 | 0 | 0.0 | 4.8 | 0.00 | 0.08 | 0.08 | 92 | 1009.6 |
| 20260906013108 | 25 | 240 | 0.0 | 4.8 | 0.00 | 0.08 | 0.08 | 92 | 1009.4 |
| 20260906011606 | 25 | 0 | 0.0 | 1.6 | 0.00 | 0.08 | 0.08 | 91 | 1009.5 |
| 20260906010107 | 25 | 170 | 0.0 | 3.2 | 0.08 | 0.08 | 0.08 | 91 | 1010.2 |
| 20260906004614 | 25 | 0 | 0.0 | 0.0 | 0.08 | 0.08 | 0.08 | 91 | 1009.4 |
| 20260906003113 | 26 | 0 | 0.0 | 8.0 | 0.08 | 0.08 | 0.08 | 88 | 1009.0 |
| 20260906001605 | 28 | 0 | 0.0 | 8.0 | 0.08 | 0.08 | 0.08 | 87 | 1009.3 |
| 20260906000111 | 29 | 0 | 0.0 | 0.0 | 0.00 | 0.00 | 0.00 | 88 | 1009.3 |
| 20260905234605 | 30 | 0 | 0.0 | 0.0 | 0.00 | 0.00 | 0.00 | 87 | 1009.4 |
| 20260905233109 | 30 | 0 | 0.0 | 0.0 | 0.00 | 0.00 | 0.00 | 85 | 1009.4 |
| 20260905231608 | 31 | 0 | 0.0 | 0.0 | 0.00 | 0.00 | 0.00 | 84 | 1009.1 |
| 20260905230110 | 31 | 0 | 0.0 | 0.0 | 0.00 | 0.00 | 0.00 | 82 | 1009.0 |
| 20260905224609 | 31 | 0 | 0.0 | 0.0 | 0.00 | 0.00 | 0.00 | 81 | 1008.8 |
| 20260905223107 | 33 | 0 | 0.0 | 0.0 | 0.00 | 0.00 | 0.00 | 75 | 1008.7 |
| 20260905221606 | 35 | 0 | 0.0 | 0.0 | 0.00 | 0.00 | 0.00 | 72 | 1008.7 |
| 20260905220123 | 35 | 0 | 0.0 | 0.0 | 0.00 | 0.00 | 0.00 | 74 | 1008.8 |
| 20260905214606 | 35 | 0 | 0.0 | 0.0 | 0.00 | 0.00 | 0.00 | 70 | 1008.7 |
| 20260905213108 | 36 | 0 | 0.0 | 0.0 | 0.00 | 0.00 | 0.00 | 63 | 1009.1 |
| 20260905211610 | 36 | 0 | 0.0 | 0.0 | 0.00 | 0.00 | 0.00 | 58 | 1009.1 |
| 20260905210107 | 36 | 0 | 0.0 | 0.0 | 0.00 | 0.00 | 0.00 | 59 | 1009.3 |
| 20260905204607 | 36 | 0 | 0.0 | 0.0 | 0.00 | 0.00 | 0.00 | 59 | 1009.5 |
| 20260905203109 | 35 | 0 | 0.0 | 1.6 | 0.00 | 0.00 | 0.00 | 60 | 1009.6 |
| 20260905201604 | 36 | 0 | 0.0 | 0.0 | 0.00 | 0.00 | 0.00 | 58 | 1009.6 |
| 20260905200114 | 35 | 0 | 0.0 | 3.2 | 0.00 | 0.00 | 0.00 | 60 | 1009.9 |
| 20260905194604 | 35 | 0 | 0.0 | 3.2 | 0.00 | 0.00 | 0.00 | 63 | 1009.9 |
| 20260905193103 | 35 | 0 | 0.0 | 1.6 | 0.00 | 0.00 | 0.00 | 62 | 1010.3 |
| 20260905191605 | 35 | 0 | 0.0 | 1.6 | 0.00 | 0.00 | 0.00 | 62 | 1010.5 |
| 20260905190113 | 35 | 0 | 0.0 | 6.4 | 0.00 | 0.00 | 0.00 | 64 | 1010.7 |
| 20260905184608 | 35 | 0 | 0.0 | 1.6 | 0.00 | 0.00 | 0.00 | 66 | 1011.0 |
| 20260905183126 | 34 | 0 | 0.0 | 3.2 | 0.00 | 0.00 | 0.00 | 65 | 1011.2 |
| 20260905181606 | 33 | 0 | 0.0 | 6.4 | 0.00 | 0.00 | 0.00 | 64 | 1011.2 |
| 20260905180106 | 33 | 0 | 0.0 | 1.6 | 0.00 | 0.00 | 0.00 | 65 | 1011.2 |
| 20260905174607 | 33 | 0 | 0.0 | 6.4 | 0.00 | 0.00 | 0.00 | 70 | 1011.6 |
| 20260905173105 | 33 | 0 | 0.0 | 0.0 | 0.00 | 0.00 | 0.00 | 70 | 1011.7 |
| 20260905171608 | 32 | 0 | 0.0 | 3.2 | 0.00 | 0.00 | 0.00 | 67 | 1011.8 |
| 20260905170104 | 32 | 0 | 0.0 | 1.6 | 0.00 | 0.00 | 0.00 | 69 | 1012.1 |
| 20260905164609 | 32 | 0 | 0.0 | 4.8 | 0.00 | 0.00 | 0.00 | 70 | 1012.1 |
| 20260905163109 | 31 | 0 | 0.0 | 4.8 | 0.00 | 0.00 | 0.00 | 73 | 1012.4 |
| 20260905161608 | 31 | 0 | 0.0 | 8.0 | 0.00 | 0.00 | 0.00 | 73 | 1012.3 |
| 20260905160123 | 30 | 0 | 0.0 | 8.0 | 0.00 | 0.00 | 0.00 | 75 | 1012.5 |
| 20260905154607 | 30 | 0 | 0.0 | 9.7 | 0.00 | 0.00 | 0.00 | 76 | 1012.5 |
| 20260905153112 | 30 | 0 | 0.0 | 9.7 | 0.00 | 0.00 | 0.00 | 76 | 1012.5 |
| 20260905151610 | 30 | 66 | 0.0 | 11.3 | 0.00 | 0.00 | 0.00 | 77 | 1012.7 |
| 20260905150106 | 29 | 0 | 0.0 | 4.8 | 0.00 | 0.00 | 0.00 | 80 | 1012.7 |
| 20260905144604 | 28 | 58 | 0.0 | 6.4 | 0.00 | 0.00 | 0.00 | 81 | 1012.9 |
| 20260905143114 | 27 | 0 | 0.0 | 6.4 | 0.00 | 0.00 | 0.00 | 85 | 1012.9 |
| 20260905141606 | 28 | 68 | 0.0 | 0.0 | 0.00 | 0.00 | 0.00 | 81 | 1012.8 |
| 20260905140110 | 28 | 0 | 0.0 | 0.0 | 0.00 | 0.00 | 0.00 | 87 | 1012.4 |
| 20260905134606 | 28 | 0 | 0.0 | 0.0 | 0.00 | 0.00 | 0.00 | 89 | 1012.4 |
| 20260905133108 | 27 | 0 | 0.0 | 0.0 | 0.00 | 0.00 | 0.00 | 94 | 1012.5 |
| 20260905131611 | 26 | 0 | 0.0 | 0.0 | 0.00 | 0.00 | 0.00 | 98 | 1012.4 |
| 20260905130117 | 25 | 0 | 0.0 | 0.0 | 0.00 | 0.00 | 0.00 | 99 | 1012.4 |
| 20260905124605 | 23 | 0 | 0.0 | 0.0 | 0.00 | 0.00 | 0.00 | 99 | 1012.6 |
| 20260905123110 | 23 | 0 | 0.0 | 0.0 | 0.00 | 0.00 | 0.00 | 99 | 1012.4 |
| 20260905121605 | 23 | 0 | 0.0 | 0.0 | 0.00 | 0.00 | 0.00 | 99 | 1012.4 |
| 20260905120114 | 22 | 0 | 0.0 | 0.0 | 0.00 | 0.00 | 0.00 | 99 | 1012.3 |
| 20260905114602 | 22 | 0 | 0.0 | 0.0 | 0.00 | 0.00 | 0.00 | 99 | 1012.2 |
| 20260905113107 | 22 | 0 | 0.0 | 0.0 | 0.00 | 0.00 | 0.00 | 99 | 1012.0 |
| 20260905111614 | 22 | 0 | 0.0 | 0.0 | 0.00 | 0.00 | 0.00 | 99 | 1011.7 |
| 20260905110105 | 22 | 0 | 0.0 | 0.0 | 0.00 | 0.00 | 0.00 | 99 | 1011.4 |
| 20260905104607 | 22 | 0 | 0.0 | 0.0 | 0.00 | 0.00 | 0.00 | 99 | 1011.3 |